sat.trackr.live / text

‹ back to catalog

STARLINK-1802

NORAD 46702 · 2020-073AJ

PAYLOAD ACTIVE UNKNOWN

§ Identity

Operator
Country
US
Launch date
2020-10-18
Launch site
AFETR
Launch vehicle
Mass (kg)
RCS (m²)

Purposes: comms

External: N2YO · Heavens-Above · Gunter

§ Orbital elements

Epoch: 2026-09-19T23:17:14.764992Z

Period
92.99 min
Inclination
53.1525°
Eccentricity
0.0001895
Mean motion
15.48621257 rev/d
Perigee alt
419.5 km
Apogee alt
422.0 km
Semi-major
6,798.9 km
B*
1.0744e-3
RAAN
22.6772°
Arg perigee
323.4108°
Mean anomaly
36.6771°
Rev number
32,739

§ Raw data

STARLINK-18021 46702U 20073AJ  26262.97030978  .00058323  00000+0  10744-2 0  99902 46702  53.1525  22.6772 0001895 323.4108  36.6771 15.48621257327397

JSON: /api/v1/satellites/46702 · /tle

For live sub-satellite position, see the globe view (requires WebGL).

§ Visibility from observer

Set your observer location to see the next 7 days of passes ≥ 10°. The values pass through the URL so the page stays shareable.

No JS? Fill the form by hand. The geolocation button needs JavaScript.